#timestamp,LO_Frequency,Hit,StdDev 
1673697615.2,286046995.6,P
1673697635.9,286046995.5,P
1673697655.7,286046997.6,N
1673697675.6,286046999.6,N
1673697695.4,286047000.5,N
1673697715.2,286047000.1,N
1673697735.1,286047000.8,N
1673697736.0,286047000.8,N
1673697755.8,286046998.2,N
1673697775.7,286047001.2,N
1673697795.5,286046999.7,N
1673697815.3,286046999.9,N
1673697835.2,286047000.6,N
1673697855.0,286047000.0,N
1673697855.9,286047000.0,N
1673697875.8,286047002.7,N
1673697895.6,286047002.1,N
1673697915.4,286047002.0,N
1673697935.3,286047001.9,N
1673697955.1,286047004.3,N
1673697975.8,286047001.5,N
1673697995.7,286047002.7,N
1673698015.5,286047002.6,N
1673698035.4,286046999.6,N
1673698055.2,286046998.5,N
1673698075.0,286046996.6,N
1673698075.9,286046996.6,N
1673698095.8,286046997.1,N
1673698115.6,286046993.3,Y
1673698135.4,286046995.8,P
1673698155.3,286046995.5,N
1673698175.1,286046993.7,P
1673698195.9,286046994.1,N
1673698215.7,286046997.5,N
1673698235.5,286046999.0,N
1673698255.4,286046999.8,N
1673698275.2,286047000.2,N
1673698295.0,286047002.0,N
1673698295.9,286047002.0,N
1673698315.8,286047002.0,N
1673698335.6,286047004.0,N
1673698355.5,286047003.4,N
1673698375.3,286047003.5,N
1673698395.1,286047003.1,N
1673698415.9,286047002.2,N
1673698435.7,286046999.7,N
1673698455.5,286047000.7,N
1673698475.4,286046998.6,N
1673698495.2,286046998.6,N
1673698515.1,286047000.3,N
1673698516.0,286047000.3,N
1673698535.8,286047000.1,N
1673698555.6,286047002.0,N
1673698575.5,286046999.9,N
1673698595.3,286047002.7,N
1673698615.2,286047001.6,N
1673698635.9,286047001.9,N
1673698655.7,286047004.1,N
1673698675.6,286046999.8,N
1673698695.4,286047000.1,N
1673698715.2,286047002.6,N
1673698735.1,286047004.2,N
1673698736.0,286047004.2,N
1673698755.8,286047002.8,N
1673698775.7,286047000.5,N
1673698795.5,286046999.9,N
1673698815.3,286046998.2,N
1673698835.2,286046995.5,N
1673698855.0,286046995.4,N
1673698855.9,286046995.4,N
1673698875.7,286046997.4,N
1673698895.6,286046999.0,N
1673698915.4,286047000.1,N
1673698935.3,286047001.5,N
1673698955.1,286047003.2,N
1673698956.0,286047003.2,N
1673698975.8,286047004.3,N
1673698995.7,286047002.4,N
1673699015.5,286047002.0,N
1673699035.9,286047001.8,N
1673699055.7,286047005.3,N
1673699075.6,286047005.9,N
1673699095.4,286047003.4,N
1673699115.2,286047002.9,N
1673699135.1,286047004.1,N
1673699136.0,286047004.1,N
1673699155.8,286047004.4,N
1673699175.6,286047004.3,N
1673699195.5,286047001.3,N
1673699215.3,286047003.1,N
1673699235.2,286047004.0,N
1673699255.9,286047002.5,N
1673699275.7,286047001.5,N
1673699295.6,286047001.8,N
1673699315.4,286047002.4,N
1673699335.2,286046998.7,N
1673699355.1,286046998.8,N
1673699356.0,286046998.8,N
1673699375.8,286047000.6,N
1673699395.7,286047000.6,N
1673699415.5,286047000.0,N
1673699435.3,286047001.8,N
1673699455.2,286047003.5,N
1673699475.0,286047003.8,N
1673699475.9,286047003.8,N
1673699495.7,286047004.1,N
1673699515.6,286047004.3,N
1673699535.4,286047001.5,N
1673699555.3,286047003.8,N
1673699575.1,286047003.5,N
1673699576.0,286047003.5,N
1673699595.8,286047001.6,N
1673699615.7,286047001.6,N
1673699635.5,286047002.4,N
1673699655.3,286047001.2,N
1673699675.2,286046999.0,N
1673699695.0,286047001.2,N
1673699695.9,286047001.2,N
1673699715.8,286046998.5,N
1673699735.6,286047002.2,N
1673699755.4,286046998.2,N
1673699775.3,286047001.6,N
1673699795.1,286047004.0,N
1673699815.8,286047004.4,N
1673699835.7,286047004.3,N
1673699855.5,286047000.6,N
1673699875.4,286046999.8,N
1673699895.2,286047001.7,N
1673699915.1,286047003.7,N
1673699916.0,286047003.7,N
1673699935.8,286046999.9,N
1673699955.6,286047000.1,N
1673699975.5,286047001.9,N
1673699995.3,286047000.3,N
1673700015.1,286047002.7,N
1673700035.9,286046999.7,N
1673700055.7,286047004.3,N
1673700075.6,286047003.1,N
1673700095.4,286047005.9,Y
1673700115.2,286047005.7,P
1673700135.1,286047001.8,N
1673700136.0,286047001.8,N
1673700155.8,286047002.6,N
1673700175.7,286047003.7,N
1673700195.5,286047003.1,N
1673700215.3,286047003.5,N
1673700235.2,286047003.5,N
1673700255.0,286047003.1,N
1673700255.9,286047003.1,N
1673700275.8,286047003.8,Y
1673700295.6,286047001.1,P
1673700315.4,286047001.0,N
1673700335.3,286047001.2,N
1673700355.1,286046998.1,N
1673700375.8,286047001.0,N
1673700395.7,286046998.1,N
1673700415.5,286047001.1,N
1673700435.4,286047000.6,N
1673700455.2,286047000.8,N
1673700475.0,286046999.4,N
1673700475.9,286046999.4,N
1673700495.8,286046996.0,N
1673700515.6,286046994.8,N
1673700535.5,286046994.6,N
1673700555.3,286046994.1,N
1673700575.1,286046992.6,N
1673700595.9,286046990.4,Y
1673700615.7,286046991.9,P
1673700635.6,286046995.4,N
1673700655.4,286046995.7,N
1673700675.2,286046994.9,N
1673700695.1,286046996.0,N
1673700696.0,286046996.0,N
1673700715.8,286046991.7,Y
1673700735.6,286047000.2,P
1673700755.5,286047000.9,N
1673700775.3,286046999.7,N
1673700795.2,286047002.0,N
1673700815.9,286047001.8,N
1673700835.7,286046998.7,N
1673700855.6,286046998.9,N
1673700875.4,286047000.3,N
1673700895.2,286046998.8,N
1673700915.1,286046997.2,N
1673700916.0,286046997.2,N
1673700935.8,286046996.8,N
1673700955.7,286047000.0,N
1673700975.5,286047001.9,N
1673700995.3,286047003.2,N
1673701015.2,286047000.3,N
1673701035.0,286046999.7,N
1673701035.9,286046999.7,N
1673701055.8,286047004.3,N
1673701075.6,286047004.4,N
1673701095.5,286047001.9,N
1673701115.3,286047000.1,N
1673701135.1,286047002.7,N
1673701155.9,286047001.1,N
1673701175.7,286046999.3,N
1673701195.6,286046999.6,N
